Skip Page Navigation
NASA JPL Caltech
NASA Logo - Jet Propulsion Laboratory + View the NASA Portal
+ Center for Near-Earth Object Studies
JPL Home Earth Solar System Stars & Galaxies Technology
JPL Solar System Dynamics
BODIES ORBITS EPHEMERIDES TOOLS PHYSICAL DATA DISCOVERY FAQ SITE MAP
IMPORTANT: The SSD Announcement email list is now available. Major changes are coming in the near future, including possible hostname and/or URL changes. To be notified of such changes, subscribe to this email list.

Please visit this page for more details.


JPL Small-Body Database Browser
Search: [ help ]  
481394 (2006 SF6)
Classification: Aten [NEO, PHA]          SPK-ID: 2481394
Ephemeris | Orbit Diagram | Orbital Elements | Mission Design | Physical Parameters | Discovery Circumstances | Close-Approach Data ]

[ hide orbit diagram ]

For accurate long-term ephemerides, please instead use our Horizons system.This orbit viewer was implemented using two-body methods, and hence should not be used for determining accurate long-term trajectories (over several years or decades) or planetary encounter circumstances.


[ revert to old Java-based viewer ]

Orbital Elements at Epoch 2458600.5 (2019-Apr-27.0) TDB
Reference: JPL 125 (heliocentric ecliptic J2000)
 Element Value Uncertainty (1-sigma)   Units 
e .2804563061070119 4.0418e-08  
a .9493709743166282 8.9591e-10 au
q .6831138977345718 3.8557e-08 au
i 5.865993297772609 3.2445e-06 deg
node 228.0589419558879 1.0304e-05 deg
peri 305.6640189480788 1.0166e-05 deg
M 52.91859837599898 5.3372e-06 deg
tp 2458550.834114459370
(2019-Mar-08.33411446)
4.9976e-06 TDB
period 337.872115727391
0.93
4.7827e-07
1.309e-09
d
yr
n 1.065491892472306 1.5082e-09 deg/d
Q 1.215628050898685 1.1472e-09 au
  Orbit Determination Parameters
   # obs. used (total)      873  
   # delay obs. used      2  
   # Doppler obs. used      0  
   data-arc span      4811 days (13.17 yr)  
   first obs. used      2006-09-17  
   last obs. used      2019-11-19  
   planetary ephem.      DE431  
   SB-pert. ephem.      SB431-N16  
   condition code      0  
   norm. resid. RMS      .32317  
   source      ORB  
   producer      Otto Matic  
   solution date      2020-Jan-01 05:54:28  

Additional Information
 Earth MOID = .019121 au 
 Jupiter MOID = 3.756 au 
 T_jup = 6.297 
[ show covariance matrix ]

Ephemeris | Orbit Diagram | Orbital Elements | Mission Design | Physical Parameters | Discovery Circumstances | Close-Approach Data ]

Physical Parameter Table
Parameter Symbol Value Units Sigma Reference Notes
absolute magnitude H 19.9   n/a MPO419309  
rotation period rot_per 11.517 h n/a LCDB (Rev. 2019-January); Warner et al., 2009 Published Reference List:
[Warner, B.D.; Stephens, R.D. (2019) Minor Planet Bull. 46, 27-40.]

481394 (2006 SF6)          Discovered 2006-Sep-17 by CSS at Catalina
Reference: Last Updated: 2017-01-17

[ show close-approach data ]
Ephemeris | Orbit Diagram | Orbital Elements | Mission Design | Physical Parameters | Discovery Circumstances | Close-Approach Data ]
ABOUT SSD CREDITS/AWARDS PRIVACY/COPYRIGHT GLOSSARY LINKS
FirstGov 2020-Jan-22 03:30 UT
(server date/time)  
NASA Home Page
Site Manager:   Ryan S. Park
Webmaster  Alan B. Chamberlin